User: anonymous   Login
Location: Unspecified
(0.0000°N, 0.0000°E)
Time: 20:09:34
(UTC+00:00)
Language:

PAYLOAD B - Orbit

View from above orbital plane
View from above orbital plane
View from above satellite
View from above satellite

Ground track
Ground track

The orbit data is extracted from the following two-line orbital elements,

1 27431U 02024B   19341.52031093 -.00000083  00000-0 -21370-4 0  9996
2 27431  99.1308 331.7805 0016345  80.5047 279.7969 14.09688300903672
Epoch (UTC): 07 December 2019 12:29:14
Eccentricity: 0.0016345
inclination: 99.1308°
perigee height: 848 km
apogee height: 872 km
right ascension of ascending node: 331.7805°
argument of perigee: 80.5047°
revolutions per day: 14.09688300
mean anomaly at epoch: 279.7969°
orbit number at epoch: 90367

The dashed part of the orbit path shows where the satellite is in the earth's shadow,  

DLR